| time (UTC) | temp F | wind direction | speed knots | gust knots | rain 1hr in | rain 24hr in | rain mn in | humidity % | barometer mb |
| 20260504013510 | 61 | 215 | 3.5 | 8.7 | 0.00 | 0.00 | 0.00 | 41 | 1008.2 |
| 20260504012009 | 62 | 189 | 2.6 | 7.0 | 0.00 | 0.00 | 0.00 | 40 | 1008.2 |
| 20260504011511 | 62 | 146 | 5.2 | 7.0 | 0.00 | 0.00 | 0.00 | 39 | 1008.2 |
| 20260504011011 | 62 | 183 | 2.6 | 7.8 | 0.00 | 0.00 | 0.00 | 39 | 1008.2 |
| 20260504010509 | 62 | 206 | 3.5 | 9.6 | 0.00 | 0.00 | 0.00 | 39 | 1008.2 |
| 20260504005540 | 62 | 144 | 4.3 | 9.6 | 0.00 | 0.00 | 0.00 | 39 | 1008.2 |
| 20260504005009 | 63 | 196 | 5.2 | 10.4 | 0.00 | 0.00 | 0.00 | 38 | 1008.2 |
| 20260504004009 | 63 | 187 | 5.2 | 11.3 | 0.00 | 0.00 | 0.00 | 38 | 1008.2 |
| 20260504003549 | 63 | 197 | 7.0 | 9.6 | 0.00 | 0.00 | 0.00 | 37 | 1008.2 |
| 20260504001516 | 64 | 210 | 10.4 | 11.3 | 0.00 | 0.00 | 0.00 | 37 | 1008.2 |
| 20260504001039 | 64 | 183 | 4.3 | 10.4 | 0.00 | 0.00 | 0.00 | 37 | 1008.2 |
| 20260504000508 | 64 | 225 | 5.2 | 11.3 | 0.00 | 0.00 | 0.00 | 36 | 1008.2 |
| 20260503235016 | 65 | 192 | 9.6 | 14.8 | 0.00 | 0.00 | 0.00 | 36 | 1008.2 |
| 20260503234546 | 65 | 247 | 7.0 | 14.8 | 0.00 | 0.00 | 0.00 | 36 | 1008.2 |
| 20260503233509 | 65 | 201 | 7.0 | 14.8 | 0.00 | 0.00 | 0.00 | 36 | 1008.2 |
| 20260503225037 | 65 | 172 | 5.2 | 11.3 | 0.00 | 0.00 | 0.00 | 36 | 1009.2 |
| 20260503222540 | 66 | 229 | 7.0 | 13.0 | 0.00 | 0.00 | 0.00 | 35 | 1009.2 |
| 20260503221507 | 66 | 172 | 9.6 | 17.4 | 0.00 | 0.00 | 0.00 | 35 | 1009.2 |
| 20260503215506 | 67 | 177 | 7.8 | 13.0 | 0.00 | 0.00 | 0.00 | 35 | 1009.2 |
| 20260503215037 | 67 | 221 | 12.2 | 14.8 | 0.00 | 0.00 | 0.00 | 35 | 1009.2 |
| 20260503214038 | 65 | 229 | 7.8 | 13.0 | 0.00 | 0.00 | 0.00 | 36 | 1009.2 |
| 20260503212039 | 64 | 181 | 7.8 | 11.3 | 0.00 | 0.00 | 0.00 | 37 | 1009.2 |
| 20260503211505 | 63 | 177 | 4.3 | 11.3 | 0.00 | 0.00 | 0.00 | 37 | 1009.2 |
| 20260503210536 | 62 | 179 | 9.6 | 14.8 | 0.00 | 0.00 | 0.00 | 38 | 1009.2 |
| 20260503205541 | 62 | 178 | 7.0 | 17.4 | 0.00 | 0.00 | 0.00 | 37 | 1009.2 |
| 20260503204536 | 62 | 198 | 10.4 | 17.4 | 0.00 | 0.00 | 0.00 | 37 | 1009.2 |
| 20260503202535 | 62 | 207 | 2.6 | 13.0 | 0.00 | 0.00 | 0.00 | 38 | 1010.2 |
| 20260503201006 | 61 | 187 | 5.2 | 17.4 | 0.00 | 0.00 | 0.00 | 38 | 1011.2 |
| 20260503200004 | 61 | 218 | 13.9 | 13.9 | 0.00 | 0.00 | 0.00 | 37 | 1011.2 |
| 20260503195504 | 61 | 230 | 7.0 | 14.8 | 0.00 | 0.00 | 0.00 | 38 | 1011.2 |
| 20260503194509 | 61 | 223 | 11.3 | 14.8 | 0.00 | 0.00 | 0.00 | 38 | 1011.2 |
| 20260503194009 | 61 | 159 | 13.0 | 14.8 | 0.00 | 0.00 | 0.00 | 38 | 1012.2 |
| 20260503193504 | 61 | 218 | 11.3 | 14.8 | 0.00 | 0.00 | 0.00 | 37 | 1012.2 |
| 20260503193034 | 61 | 211 | 10.4 | 14.8 | 0.00 | 0.00 | 0.00 | 37 | 1012.2 |
| 20260503190503 | 60 | 268 | 6.1 | 11.3 | 0.00 | 0.00 | 0.00 | 37 | 1012.2 |
| 20260503190033 | 60 | 235 | 5.2 | 11.3 | 0.00 | 0.00 | 0.00 | 37 | 1012.2 |
| 20260503185533 | 61 | 176 | 7.8 | 13.0 | 0.00 | 0.00 | 0.00 | 37 | 1012.2 |
| 20260503184033 | 62 | 229 | 8.7 | 14.8 | 0.00 | 0.00 | 0.00 | 36 | 1012.2 |
| 20260503182534 | 63 | 188 | 11.3 | 16.5 | 0.00 | 0.00 | 0.00 | 36 | 1013.2 |
| 20260503181032 | 62 | 246 | 9.6 | 18.2 | 0.00 | 0.00 | 0.00 | 37 | 1013.2 |
| 20260503175033 | 63 | 176 | 7.8 | 16.5 | 0.00 | 0.00 | 0.00 | 37 | 1013.2 |
| 20260503172534 | 62 | 224 | 9.6 | 14.8 | 0.00 | 0.00 | 0.00 | 38 | 1014.2 |
| 20260503171542 | 62 | 176 | 9.6 | 15.6 | 0.00 | 0.00 | 0.00 | 38 | 1014.2 |
| 20260503171032 | 61 | 207 | 13.0 | 17.4 | 0.00 | 0.00 | 0.00 | 38 | 1014.2 |
| 20260503150529 | 56 | 222 | 14.8 | 14.8 | 0.00 | 0.00 | 0.00 | 47 | 1016.2 |
| 20260503130527 | 50 | 196 | 5.2 | 11.3 | 0.00 | 0.00 | 0.00 | 58 | 1016.2 |
| 20260503110525 | 43 | 153 | 2.6 | 7.8 | 0.00 | 0.00 | 0.00 | 54 | 1016.2 |
| 20260503081022 | 43 | 241 | 5.2 | 7.0 | 0.00 | 0.00 | 0.00 | 50 | 1016.2 |
| 20260503072521 | 44 | 178 | 2.6 | 6.1 | 0.00 | 0.00 | 0.00 | 50 | 1016.2 |
| 20260503072022 | 44 | 176 | 5.2 | 6.1 | 0.00 | 0.00 | 0.00 | 50 | 1016.2 |
| 20260503071521 | 44 | 174 | 4.3 | 5.2 | 0.00 | 0.00 | 0.00 | 50 | 1016.2 |
| 20260503071021 | 44 | 228 | 4.3 | 7.0 | 0.00 | 0.00 | 0.00 | 50 | 1016.2 |
| 20260503070521 | 44 | 206 | 4.3 | 7.0 | 0.00 | 0.00 | 0.00 | 50 | 1016.2 |
| 20260503055020 | 45 | 149 | 3.5 | 7.0 | 0.00 | 0.00 | 0.00 | 46 | 1017.2 |
| 20260503054020 | 46 | 181 | 4.3 | 5.2 | 0.00 | 0.00 | 0.00 | 46 | 1017.2 |
| 20260503053520 | 46 | 191 | 5.2 | 5.2 | 0.00 | 0.00 | 0.00 | 45 | 1017.2 |
| 20260503053020 | 46 | 139 | 2.6 | 7.0 | 0.00 | 0.00 | 0.00 | 45 | 1017.2 |
| 20260503052520 | 46 | 155 | 4.3 | 7.0 | 0.00 | 0.00 | 0.00 | 45 | 1017.2 |
| 20260503052020 | 46 | 183 | 5.2 | 5.2 | 0.00 | 0.00 | 0.00 | 45 | 1017.2 |
| 20260503051020 | 46 | 166 | 2.6 | 5.2 | 0.00 | 0.00 | 0.00 | 45 | 1017.2 |
| 20260503050019 | 46 | 168 | 0.0 | 5.2 | 0.00 | 0.00 | 0.00 | 45 | 1017.2 |
| 20260503045519 | 46 | 198 | 2.6 | 5.2 | 0.00 | 0.00 | 0.00 | 45 | 1017.2 |
| 20260503045019 | 46 | 190 | 2.6 | 3.5 | 0.00 | 0.00 | 0.00 | 45 | 1017.2 |
| 20260503044519 | 47 | 182 | 0.0 | 4.3 | 0.00 | 0.00 | 0.00 | 44 | 1017.2 |
| 20260503044019 | 47 | 159 | 1.7 | 4.3 | 0.00 | 0.00 | 0.00 | 44 | 1017.2 |
| 20260503043519 | 47 | 158 | 2.6 | 4.3 | 0.00 | 0.00 | 0.00 | 44 | 1017.2 |
| 20260503043019 | 47 | 204 | 4.3 | 4.3 | 0.00 | 0.00 | 0.00 | 44 | 1017.2 |
| 20260503042519 | 47 | 154 | 2.6 | 3.5 | 0.00 | 0.00 | 0.00 | 44 | 1017.2 |
| 20260503042019 | 47 | 157 | 3.5 | 3.5 | 0.00 | 0.00 | 0.00 | 45 | 1017.2 |
| 20260503041519 | 47 | 185 | 2.6 | 3.5 | 0.00 | 0.00 | 0.00 | 45 | 1017.2 |
| 20260503041018 | 47 | 175 | 2.6 | 3.5 | 0.00 | 0.00 | 0.00 | 45 | 1017.2 |
| 20260503040020 | 47 | 151 | 1.7 | 5.2 | 0.00 | 0.01 | 0.00 | 44 | 1017.2 |
| 20260503035519 | 47 | 161 | 2.6 | 5.2 | 0.00 | 0.02 | 0.00 | 45 | 1017.2 |
| 20260503035018 | 46 | 167 | 3.5 | 4.3 | 0.00 | 0.02 | 0.00 | 46 | 1017.2 |
| 20260503034518 | 46 | 185 | 0.0 | 3.5 | 0.00 | 0.02 | 0.00 | 46 | 1017.2 |
| 20260503034018 | 47 | 200 | 0.0 | 3.5 | 0.00 | 0.02 | 0.00 | 45 | 1017.2 |
| 20260503033518 | 47 | 185 | 1.7 | 2.6 | 0.00 | 0.02 | 0.00 | 45 | 1017.2 |
| 20260503033018 | 46 | 190 | 0.0 | 0.0 | 0.00 | 0.02 | 0.00 | 46 | 1017.2 |
| 20260503032518 | 46 | 189 | 0.0 | 0.0 | 0.00 | 0.02 | 0.00 | 46 | 1017.2 |
| 20260503032018 | 46 | 192 | 0.0 | 0.0 | 0.00 | 0.02 | 0.00 | 45 | 1017.2 |
| 20260503031517 | 46 | 192 | 0.0 | 3.5 | 0.00 | 0.02 | 0.00 | 45 | 1017.2 |
| 20260503031018 | 46 | 200 | 0.0 | 3.5 | 0.00 | 0.02 | 0.00 | 44 | 1017.2 |
| 20260503030518 | 46 | 190 | 2.6 | 3.5 | 0.00 | 0.02 | 0.00 | 43 | 1017.2 |
| 20260503030020 | 46 | 198 | 0.0 | 1.7 | 0.00 | 0.02 | 0.00 | 42 | 1017.2 |
| 20260503025517 | 47 | 198 | 0.0 | 4.3 | 0.00 | 0.02 | 0.00 | 42 | 1017.2 |
| 20260503024518 | 47 | 357 | 0.0 | 0.0 | 0.00 | 0.02 | 0.00 | 41 | 1017.2 |
| 20260503024018 | 47 | 357 | 0.0 | 0.0 | 0.00 | 0.02 | 0.00 | 41 | 1017.2 |
| 20260503023517 | 47 | 357 | 0.0 | 0.0 | 0.00 | 0.02 | 0.00 | 41 | 1017.2 |
| 20260503023019 | 47 | 357 | 0.0 | 0.0 | 0.00 | 0.02 | 0.00 | 41 | 1017.2 |
| 20260503022017 | 47 | 357 | 0.0 | 0.0 | 0.00 | 0.02 | 0.00 | 41 | 1017.2 |
| 20260503021517 | 48 | 357 | 0.0 | 0.0 | 0.00 | 0.02 | 0.00 | 41 | 1017.2 |
| 20260503021020 | 48 | 357 | 0.0 | 0.0 | 0.00 | 0.02 | 0.00 | 41 | 1017.2 |
| 20260503020518 | 48 | 357 | 0.0 | 0.0 | 0.00 | 0.02 | 0.00 | 41 | 1017.2 |
| 20260503015016 | 49 | 357 | 0.0 | 0.0 | 0.00 | 0.02 | 0.00 | 40 | 1017.2 |
| 20260503014018 | 49 | 357 | 0.0 | 0.0 | 0.00 | 0.02 | 0.00 | 40 | 1016.2 |